Location: Coffee Ditch
(40.9640°N, 122.7500°W)
Time: 07:22:53
(UTC+00:00)

Cosmos 1190 Rocket - Pass Details

Date: 08 September 2024
Orbit: 754 x 777 km, 74.1° (Epoch: 05 October)

Event Time Altitude Azimuth Distance (km) Brightness Sun altitude
Exits shadow 12:16:21 13° 195° (SSW) 2,046 5.9 -17.0°
Maximum altitude 12:20:55 85° 108° (ESE) 762 4.0 -16.2°
Drops below altitude 10° 12:26:06 10° 21° (NNE) 2,286 7.1 -15.3°
Sets 12:28:29 0° 20° (NNE) 3,216 7.9 -14.9°
